Previsão horária em Barlinek

Hoje, 21 Outubro, Quarta-feira

Tempo Temperatura Precipitação Vento Pressão Humidade
00:00 +10°C° 0.2 mm 4 m/s 753 mmHg 86%
01:00 +10°C° 0 mm 4 m/s 752 mmHg 89%
02:00 +10°C° 0.2 mm 4 m/s 752 mmHg 89%
03:00 +10°C° 0.2 mm 3 m/s 752 mmHg 89%
04:00 +10°C° 0.2 mm 3 m/s 752 mmHg 89%
05:00 +10°C° 0.5 mm 3 m/s 752 mmHg 90%
06:00 +10°C° 0.5 mm 4 m/s 752 mmHg 91%
07:00 +10°C° 0 mm 3 m/s 752 mmHg 87%
08:00 +10°C° 0.2 mm 3 m/s 751 mmHg 86%
09:00 +10°C° 0.2 mm 4 m/s 751 mmHg 84%
10:00 +10°C° 0.2 mm 4 m/s 751 mmHg 82%
11:00 +11°C° 0 mm 4 m/s 751 mmHg 80%
12:00 +11°C° 0 mm 4 m/s 751 mmHg 77%
13:00 +11°C° 0 mm 4 m/s 751 mmHg 75%
14:00 +11°C° 0 mm 4 m/s 751 mmHg 75%
15:00 +11°C° 0 mm 4 m/s 750 mmHg 74%
16:00 +11°C° 0 mm 4 m/s 750 mmHg 74%
17:00 +11°C° 0 mm 4 m/s 750 mmHg 74%
18:00 +12°C° 0 mm 4 m/s 750 mmHg 74%
19:00 +12°C° 0 mm 4 m/s 750 mmHg 74%
20:00 +12°C° 0 mm 5 m/s 750 mmHg 73%
21:00 +12°C° 0 mm 5 m/s 750 mmHg 73%
22:00 +11°C° 0 mm 6 m/s 750 mmHg 72%
23:00 +11°C° 0 mm 6 m/s 750 mmHg 70%

Amanhã, 22 Outubro, Quinta-feira

Tempo Temperatura Precipitação Vento Pressão Humidade
00:00 +11°C° 0 mm 6 m/s 750 mmHg 67%
01:00 +13°C° 0 mm 6 m/s 751 mmHg 65%
02:00 +13°C° 0 mm 6 m/s 750 mmHg 68%
03:00 +13°C° 0 mm 6 m/s 750 mmHg 71%
04:00 +13°C° 0 mm 6 m/s 750 mmHg 74%
05:00 +13°C° 0 mm 6 m/s 751 mmHg 76%
06:00 +13°C° 0 mm 6 m/s 751 mmHg 79%
07:00 +13°C° 0 mm 5 m/s 752 mmHg 81%
08:00 +14°C° 0 mm 6 m/s 752 mmHg 78%
09:00 +15°C° 0 mm 6 m/s 752 mmHg 75%
10:00 +16°C° 0 mm 7 m/s 753 mmHg 71%
11:00 +17°C° 0 mm 7 m/s 753 mmHg 68%
12:00 +19°C° 0 mm 6 m/s 753 mmHg 65%
13:00 +19°C° 0 mm 6 m/s 753 mmHg 61%
14:00 +19°C° 0 mm 5 m/s 753 mmHg 64%
15:00 +17°C° 0 mm 5 m/s 753 mmHg 68%
16:00 +18°C° 0 mm 4 m/s 753 mmHg 71%
17:00 +17°C° 0 mm 4 m/s 753 mmHg 74%
18:00 +15°C° 0 mm 4 m/s 753 mmHg 77%
19:00 +15°C° 0 mm 4 m/s 753 mmHg 80%
20:00 +14°C° 0 mm 4 m/s 753 mmHg 80%
21:00 +14°C° 0 mm 5 m/s 752 mmHg 80%
22:00 +14°C° 0 mm 5 m/s 752 mmHg 81%
23:00 +14°C° 0.2 mm 5 m/s 752 mmHg 81%

Depois de amanhã, 23 Outubro, Sexta-feira

Tempo Temperatura Precipitação Vento Pressão Humidade
00:00 +14°C° 0.2 mm 5 m/s 752 mmHg 81%
01:00 +14°C° 0.2 mm 5 m/s 752 mmHg 81%
02:00 +14°C° 0.8 mm 5 m/s 752 mmHg 84%
03:00 +14°C° 0.8 mm 5 m/s 751 mmHg 88%
04:00 +14°C° 0.8 mm 4 m/s 751 mmHg 91%
05:00 +13°C° 0.2 mm 4 m/s 751 mmHg 92%
06:00 +13°C° 0.2 mm 4 m/s 751 mmHg 92%
07:00 +13°C° 0.2 mm 4 m/s 751 mmHg 92%
08:00 +14°C° 0.4 mm 4 m/s 751 mmHg 90%
09:00 +14°C° 0.4 mm 4 m/s 751 mmHg 87%
10:00 +15°C° 0.4 mm 4 m/s 751 mmHg 85%
11:00 +15°C° 0.1 mm 5 m/s 751 mmHg 79%
12:00 +16°C° 0.1 mm 5 m/s 751 mmHg 73%
13:00 +17°C° 0.1 mm 5 m/s 751 mmHg 67%
14:00 +17°C° 0 mm 4 m/s 751 mmHg 70%
15:00 +16°C° 0 mm 3 m/s 751 mmHg 72%
16:00 +16°C° 0 mm 2 m/s 751 mmHg 75%
17:00 +15°C° 0 mm 2 m/s 751 mmHg 78%
18:00 +14°C° 0 mm 2 m/s 751 mmHg 81%
19:00 +13°C° 0 mm 1 m/s 751 mmHg 83%
20:00 +13°C° 0 mm 1 m/s 751 mmHg 85%
21:00 +12°C° 0 mm 1 m/s 751 mmHg 86%
22:00 +12°C° 0 mm 1 m/s 751 mmHg 87%
23:00 +12°C° 0 mm 1 m/s 751 mmHg 89%

24 Outubro, Sábado

Tempo Temperatura Precipitação Vento Pressão Humidade
00:00 +11°C° 0 mm 1 m/s 751 mmHg 90%
01:00 +11°C° 0 mm 1 m/s 751 mmHg 91%
02:00 +10°C° 0.1 mm 2 m/s 751 mmHg 93%
03:00 +10°C° 0.1 mm 3 m/s 751 mmHg 95%
04:00 +10°C° 0.1 mm 3 m/s 751 mmHg 96%
05:00 +10°C° 0.1 mm 4 m/s 751 mmHg 95%
06:00 +10°C° 0.1 mm 5 m/s 751 mmHg 93%
07:00 +10°C° 0.1 mm 5 m/s 751 mmHg 91%
08:00 +10°C° 0 mm 6 m/s 752 mmHg 86%
09:00 +11°C° 0 mm 6 m/s 752 mmHg 81%
10:00 +12°C° 0 mm 7 m/s 752 mmHg 77%
11:00 +12°C° 0.1 mm 7 m/s 753 mmHg 72%
12:00 +12°C° 0.1 mm 7 m/s 753 mmHg 67%
13:00 +12°C° 0.1 mm 7 m/s 753 mmHg 62%
14:00 +11°C° 0 mm 6 m/s 753 mmHg 64%
15:00 +12°C° 0 mm 4 m/s 754 mmHg 65%
16:00 +11°C° 0 mm 3 m/s 754 mmHg 67%
17:00 +10°C° 0 mm 3 m/s 754 mmHg 69%
18:00 +9°C° 0 mm 2 m/s 754 mmHg 72%
19:00 +8°C° 0 mm 2 m/s 755 mmHg 74%
20:00 +8°C° 0 mm 2 m/s 755 mmHg 76%
21:00 +8°C° 0 mm 2 m/s 755 mmHg 78%
22:00 +8°C° 0 mm 2 m/s 755 mmHg 80%
23:00 +8°C° 0 mm 3 m/s 755 mmHg 84%

25 Outubro, Domingo

Tempo Temperatura Precipitação Vento Pressão Humidade
00:00 +8°C° 0 mm 3 m/s 755 mmHg 87%
01:00 +8°C° 0 mm 3 m/s 754 mmHg 91%
02:00 +8°C° 0 mm 3 m/s 754 mmHg 92%
03:00 +8°C° 0 mm 3 m/s 754 mmHg 93%
04:00 +8°C° 0 mm 3 m/s 753 mmHg 94%
05:00 +8°C° 0 mm 3 m/s 753 mmHg 94%
06:00 +7°C° 0 mm 4 m/s 753 mmHg 94%
07:00 +7°C° 0 mm 4 m/s 753 mmHg 94%
08:00 +8°C° 0 mm 4 m/s 753 mmHg 88%
09:00 +11°C° 0 mm 4 m/s 753 mmHg 82%
10:00 +12°C° 0 mm 5 m/s 752 mmHg 76%
11:00 +13°C° 0 mm 5 m/s 752 mmHg 72%
12:00 +15°C° 0 mm 5 m/s 752 mmHg 68%
13:00 +16°C° 0 mm 5 m/s 751 mmHg 64%
14:00 +15°C° 0 mm 5 m/s 751 mmHg 66%
15:00 +15°C° 0 mm 4 m/s 751 mmHg 68%
16:00 +14°C° 0 mm 4 m/s 750 mmHg 70%
17:00 +14°C° 0 mm 4 m/s 750 mmHg 73%
18:00 +13°C° 0 mm 4 m/s 750 mmHg 76%
19:00 +12°C° 0 mm 4 m/s 750 mmHg 79%
20:00 +12°C° 0 mm 4 m/s 750 mmHg 79%
21:00 +12°C° 0 mm 4 m/s 750 mmHg 80%
22:00 +11°C° 0 mm 4 m/s 750 mmHg 81%
23:00 +11°C° 0 mm 4 m/s 750 mmHg 84%

26 Outubro, Segunda-feira

Tempo Temperatura Precipitação Vento Pressão Humidade
00:00 +10°C° 0 mm 3 m/s 750 mmHg 86%
01:00 +10°C° 0 mm 3 m/s 750 mmHg 89%
02:00 +10°C° 0 mm 3 m/s 750 mmHg 91%
03:00 +9°C° 0 mm 3 m/s 750 mmHg 92%
04:00 +9°C° 0 mm 2 m/s 750 mmHg 93%
05:00 +9°C° 0 mm 2 m/s 750 mmHg 93%
06:00 +8°C° 0 mm 2 m/s 750 mmHg 94%
07:00 +8°C° 0 mm 2 m/s 750 mmHg 94%
08:00 +10°C° 0 mm 2 m/s 750 mmHg 88%
09:00 +12°C° 0 mm 2 m/s 750 mmHg 83%
10:00 +13°C° 0 mm 2 m/s 750 mmHg 77%
11:00 +14°C° 0 mm 2 m/s 749 mmHg 74%
12:00 +15°C° 0 mm 2 m/s 749 mmHg 71%
13:00 +15°C° 0 mm 2 m/s 749 mmHg 68%
14:00 +15°C° 0.1 mm 2 m/s 749 mmHg 73%
15:00 +14°C° 0.1 mm 1 m/s 749 mmHg 77%
16:00 +13°C° 0.1 mm 1 m/s 749 mmHg 82%
17:00 +13°C° 0.1 mm 1 m/s 749 mmHg 84%
18:00 +13°C° 0.1 mm 1 m/s 749 mmHg 86%
19:00 +12°C° 0.1 mm 1 m/s 749 mmHg 88%
20:00 +12°C° 0 mm 1 m/s 749 mmHg 90%
21:00 +12°C° 0 mm 1 m/s 749 mmHg 91%
22:00 +12°C° 0 mm 1 m/s 749 mmHg 92%
23:00 +12°C° 0 mm 1 m/s 749 mmHg 93%

27 Outubro, Terça-feira

Tempo Temperatura Precipitação Vento Pressão Humidade
00:00 +11°C° 0 mm 1 m/s 749 mmHg 94%
01:00 +11°C° 0 mm 1 m/s 749 mmHg 95%
02:00 +10°C° 0 mm 2 m/s 749 mmHg 95%
03:00 +10°C° 0 mm 2 m/s 749 mmHg 96%
04:00 +10°C° 0 mm 2 m/s 749 mmHg 96%
05:00 +10°C° 0 mm 2 m/s 750 mmHg 95%
06:00 +10°C° 0 mm 2 m/s 750 mmHg 95%
07:00 +10°C° 0 mm 3 m/s 750 mmHg 94%
08:00 +10°C° 0.2 mm 3 m/s 751 mmHg 93%
09:00 +11°C° 0.2 mm 3 m/s 751 mmHg 91%
10:00 +11°C° 0.2 mm 3 m/s 752 mmHg 90%
11:00 +11°C° 0.1 mm 3 m/s 752 mmHg 88%
12:00 +11°C° 0.1 mm 3 m/s 752 mmHg 86%
13:00 +12°C° 0.1 mm 3 m/s 753 mmHg 84%
14:00 +11°C° 0 mm 3 m/s 753 mmHg 84%
15:00 +11°C° 0 mm 3 m/s 753 mmHg 84%
16:00 +12°C° 0 mm 2 m/s 754 mmHg 85%
17:00 +10°C° 0 mm 2 m/s 754 mmHg 88%
18:00 +9°C° 0 mm 2 m/s 755 mmHg 90%
19:00 +9°C° 0 mm 1 m/s 755 mmHg 93%
20:00 +9°C° 0 mm 1 m/s 755 mmHg 93%
21:00 +9°C° 0 mm 1 m/s 756 mmHg 93%
22:00 +9°C° 0 mm 1 m/s 756 mmHg 93%
23:00 +8°C° 0 mm 1 m/s 757 mmHg 93%
Mostrar mais